FW9470 Weather Reports


Display with metric or nautical units.
time (UTC)temp
F
wind
direction
speed
MPH
gust
MPH
rain 1hr
in
rain 24hr
in
rain mn
in
humidity
%
barometer
mb
20260508224554 67 159 1.0 7.0 0.00 0.00 0.00 65 1013.3
20260508223030 67 150 2.0 6.0 0.00 0.00 0.00 65 1013.5
20260508221534 67 170 1.0 4.0 0.00 0.00 0.00 67 1013.2
20260508220035 68 207 1.0 4.0 0.00 0.00 0.00 60 1013.3
20260508214538 68 266 1.0 4.0 0.00 0.00 0.00 60 1013.3
20260508213037 69 219 1.0 5.0 0.00 0.00 0.00 58 1013.0
20260508211532 69 207 1.0 7.0 0.00 0.00 0.00 59 1013.4
20260508210033 69 269 2.0 6.0 0.00 0.00 0.00 57 1013.2
20260508204535 69 240 3.0 8.0 0.00 0.00 0.00 56 1013.4
20260508203035 70 254 4.0 10.0 0.00 0.00 0.00 54 1013.5
20260508201538 70 229 2.0 8.0 0.00 0.00 0.00 55 1013.6
20260508200042 70 360 2.0 9.0 0.00 0.00 0.00 54 1013.7
20260508194530 70 360 2.0 6.0 0.00 0.00 0.00 58 1013.9
20260508193037 70 360 2.0 6.0 0.00 0.00 0.00 55 1014.3
20260508191533 70 360 2.0 6.0 0.00 0.00 0.00 54 1014.4
20260508190033 70 360 6.0 11.0 0.00 0.00 0.00 54 1014.4
20260508184530 70 360 3.0 9.0 0.00 0.00 0.00 55 1014.5
20260508183034 69 287 2.0 7.0 0.00 0.00 0.00 55 1015.0
20260508181540 70 360 3.0 7.0 0.00 0.00 0.00 55 1015.1
20260508180033 69 146 2.0 5.0 0.00 0.00 0.00 57 1015.3
20260508174531 68 147 2.0 9.0 0.00 0.00 0.00 56 1015.6
20260508173031 68 213 3.0 10.0 0.00 0.00 0.00 57 1015.7
20260508171536 66 171 3.0 9.0 0.00 0.00 0.00 61 1015.9
20260508170030 67 165 2.0 9.0 0.00 0.00 0.00 59 1016.0
20260508164533 67 236 4.0 10.0 0.00 0.00 0.00 60 1016.4
20260508163031 67 177 3.0 12.0 0.00 0.00 0.00 60 1016.5
20260508161537 65 206 3.0 9.0 0.00 0.00 0.00 61 1016.7
20260508160036 64 167 1.0 9.0 0.00 0.00 0.00 64 1016.7
20260508154530 66 26 2.0 11.0 0.00 0.00 0.00 59 1017.1
20260508153030 66 185 2.0 8.0 0.00 0.00 0.00 58 1017.2
20260508151529 64 98 2.0 8.0 0.00 0.00 0.00 63 1017.3
20260508150039 65 184 2.0 7.0 0.00 0.00 0.00 60 1017.2
20260508144542 64 0 1.0 9.0 0.00 0.00 0.00 62 1016.9
20260508143038 64 163 1.0 7.0 0.00 0.00 0.00 66 1016.7
20260508141530 63 165 2.0 6.0 0.00 0.00 0.00 66 1017.2
20260508140039 62 343 1.0 6.0 0.00 0.00 0.00 68 1017.5
20260508134532 61 320 1.0 4.0 0.00 0.00 0.00 72 1017.5
20260508133030 60 0 0.0 2.0 0.00 0.00 0.00 79 1017.6
20260508131534 59 0 0.0 3.0 0.00 0.00 0.00 84 1017.5
20260508130030 57 352 0.0 1.0 0.00 0.00 0.00 89 1017.4
20260508124530 55 0 0.0 1.0 0.00 0.00 0.00 94 1017.0
20260508123033 53 0 0.0 0.0 0.00 0.00 0.00 96 1016.8
20260508121533 52 0 0.0 0.0 0.00 0.00 0.00 97 1016.7
20260508120032 50 0 0.0 0.0 0.00 0.00 0.00 97 1016.5
20260508114536 49 0 0.0 0.0 0.00 0.00 0.00 97 1016.3
20260508113045 48 0 0.0 0.0 0.00 0.00 0.00 97 1016.2
20260508111532 47 0 0.0 1.0 0.00 0.00 0.00 97 1015.6
20260508110034 47 0 0.0 1.0 0.00 0.00 0.00 96 1015.4
20260508104548 47 0 0.0 0.0 0.00 0.00 0.00 96 1015.0
20260508103030 47 0 0.0 0.0 0.00 0.00 0.00 96 1015.0
20260508101537 47 0 0.0 0.0 0.00 0.00 0.00 96 1014.8
20260508100036 47 0 0.0 0.0 0.00 0.00 0.00 96 1014.5
20260508094533 48 0 0.0 0.0 0.00 0.00 0.00 96 1014.3
20260508093033 48 0 0.0 0.0 0.00 0.00 0.00 96 1014.4
20260508091533 48 0 0.0 0.0 0.00 0.00 0.00 96 1014.2
20260508090043 48 0 0.0 0.0 0.00 0.00 0.00 96 1014.1
20260508084531 48 0 0.0 0.0 0.00 0.00 0.00 96 1013.8
20260508083038 48 0 0.0 0.0 0.00 0.00 0.00 96 1013.8
20260508081530 48 0 0.0 0.0 0.00 0.00 0.00 96 1013.8
20260508080030 48 0 0.0 0.0 0.00 0.00 0.00 96 1013.7
20260508074529 49 0 0.0 0.0 0.00 0.00 0.00 95 1013.9
20260508073030 49 0 0.0 0.0 0.00 0.00 0.00 96 1014.0
20260508071531 49 0 0.0 0.0 0.00 0.00 0.00 95 1013.9
20260508070030 49 0 0.0 0.0 0.00 0.00 0.00 95 1013.8
20260508064551 50 0 0.0 0.0 0.00 0.00 0.00 95 1013.4
20260508063030 50 0 0.0 0.0 0.00 0.00 0.00 95 1013.4
20260508061532 50 0 0.0 0.0 0.00 0.00 0.00 95 1013.4
20260508060035 51 0 0.0 0.0 0.00 0.00 0.00 95 1013.6
20260508054553 51 0 0.0 0.0 0.00 0.00 0.00 94 1013.6
20260508053031 52 0 0.0 0.0 0.00 0.00 0.00 94 1013.5
20260508051533 52 0 0.0 0.0 0.00 0.00 0.00 94 1013.7
20260508050037 52 0 0.0 1.0 0.00 0.00 0.00 93 1013.6
20260508044530 53 0 0.0 0.0 0.00 0.00 0.00 92 1013.6
20260508043040 53 0 0.0 0.0 0.00 0.00 0.00 91 1013.6
20260508041534 54 0 0.0 0.0 0.00 0.00 0.00 90 1013.4
20260508040040 54 333 0.0 1.0 0.00 0.00 0.00 89 1013.3
20260508034534 55 0 0.0 0.0 0.00 0.00 0.00 88 1013.3
20260508033033 56 0 0.0 0.0 0.00 0.00 0.00 86 1013.3
20260508031531 57 333 0.0 2.0 0.00 0.00 0.00 84 1013.4
20260508030034 58 0 0.0 2.0 0.00 0.00 0.00 83 1012.9
20260508024530 59 0 0.0 0.0 0.00 0.00 0.00 84 1012.9
20260508023032 60 0 0.0 1.0 0.00 0.00 0.00 82 1012.5
20260508021532 60 0 0.0 2.0 0.00 0.00 0.00 79 1012.4
20260508020030 62 333 0.0 2.0 0.00 0.00 0.00 78 1012.1
20260508014532 63 0 0.0 4.0 0.00 0.00 0.00 75 1011.9
20260508013031 64 0 1.0 6.0 0.00 0.00 0.00 72 1011.3
20260508011543 65 286 1.0 7.0 0.00 0.00 0.00 71 1011.0
20260508010037 66 262 3.0 10.0 0.00 0.00 0.00 69 1010.6
20260508004537 66 309 3.0 12.0 0.00 0.00 0.00 68 1010.7
20260508003032 67 265 3.0 10.0 0.00 0.00 0.00 65 1010.4
20260508001533 68 351 2.0 11.0 0.00 0.00 0.00 65 1009.8
20260508000035 69 266 3.0 11.0 0.00 0.00 0.00 65 1009.7
20260507234538 70 297 2.0 13.0 0.00 0.00 0.00 64 1009.4
20260507233035 71 213 5.0 11.0 0.00 0.00 0.00 63 1009.1
20260507231531 72 229 5.0 15.0 0.00 0.00 0.00 61 1008.8
20260507230029 73 223 4.0 11.0 0.00 0.00 0.00 60 1008.6